Stockton, CA

7:20 AM PDT on March 24, 2017 (GMT -0700)
Stockton Metro

Weather History for KSCK - February, 2014

Change the Weather History Date:

Thursday, February 6, 2014

  Actual Average Record
Temperature  
Mean Temperature 48 °F -  
Max Temperature 51 °F 59 °F 70 °F (1987)
Min Temperature 45 °F 39 °F 22 °F (1989)
Degree Days  
Heating Degree Days 17 16  
Month to date heating degree days 115 99  
Since 1 July heating degree days 1615 1754  
Cooling Degree Days 0 0  
Month to date cooling degree days 0 0  
Year to date cooling degree days 0 0  
Moisture  
Dew Point 45 °F    
Average Humidity 89    
Maximum Humidity 100    
Minimum Humidity 77    
Precipitation  
Precipitation 0.29 in 0.09 in 0.73 in (1983)
Month to date precipitation 0.38 0.58  
Year to date precipitation 0.59 3.32  
Since 1 July precipitation 2.30  
Snow  
Snow 0.00 in - - ()
Month to date snowfall 0.0  
Since 1 July snowfall 0.0  
Snow Depth -    
Sea Level Pressure  
Sea Level Pressure 29.99 in    
Wind  
Wind Speed 10 mph (SE)    
Max Wind Speed 23 mph    
Max Gust Speed 30 mph    
Visibility 8 miles    
Events Rain    
T = Trace of Precipitation, MM = Missing Value Source: NWS Daily Summary

Daily Weather History Graph

Daily Weather History Graph

Search for Another Location

Airport or City:

Trip Planner

Search our weather history database for the weather conditions in past years. The results will help you decide how hot, cold, wet, or windy it might be!

Date:

Astronomy

Feb. 06, 2014 Rise Set
Actual Time 7:04 AM PST 5:34 PM PST
Civil Twilight 6:37 AM PST 6:01 PM PST
Nautical Twilight 6:05 AM PST 6:32 PM PST
Astronomical Twilight 5:35 AM PST 7:03 PM PST
Moon 11:09 AM PST (2/6) 12:25 AM PST (2/6)
Length of Visible Light 11h 24m
Length of Day
10h 29m
Waxing Crescent, 50% of the Moon is Illuminated
Feb 6
Waxing Crescent
Feb 14
Full
Feb 22
Last Quarter
Mar 1
New
Mar 8
First Quarter

Hourly Weather History & Observations

Time (PST) Temp. Windchill Dew Point Humidity Pressure Visibility Wind Dir Wind Speed Gust Speed Precip Events Conditions
12:55 AM 46.9 °F - 44.1 °F 90% 30.06 in 10.0 mi East 9.2 mph - 0.02 in   Overcast
1:55 AM 46.0 °F 41.9 °F 44.1 °F 93% 30.05 in 10.0 mi East 8.1 mph - 0.00 in Rain Light Rain
2:55 AM 45.0 °F 43.5 °F 44.1 °F 97% 30.03 in 9.0 mi South 3.5 mph - 0.03 in Rain Light Rain
3:55 AM 45.0 °F - 43.0 °F 93% 30.01 in 10.0 mi Calm Calm - 0.03 in Rain Light Rain
4:55 AM 45.0 °F 42.6 °F 44.1 °F 97% 30.01 in 6.0 mi SE 4.6 mph - 0.04 in Rain Rain
5:55 AM 45.0 °F 42.6 °F 44.1 °F 97% 29.99 in 7.0 mi SE 4.6 mph - 0.03 in Rain Light Rain
6:55 AM 45.0 °F 40.1 °F 44.1 °F 97% 29.99 in 5.0 mi SE 9.2 mph - 0.07 in Rain Light Rain
7:55 AM 45.0 °F 39.7 °F 44.1 °F 97% 29.98 in 5.0 mi SE 10.4 mph - 0.05 in Rain Light Rain
8:55 AM 46.0 °F 39.6 °F 45.0 °F 96% 29.97 in 7.0 mi SE 15.0 mph - 0.02 in   Overcast
9:55 AM 48.0 °F - 45.0 °F 89% 29.97 in 10.0 mi SE 17.3 mph 25.3 mph N/A   Overcast
10:55 AM 48.9 °F - 45.0 °F 86% 29.98 in 7.0 mi SE 20.7 mph 27.6 mph 0.00 in Rain Light Rain
11:55 AM 48.9 °F - 46.0 °F 90% 29.96 in 5.0 mi SSE 18.4 mph 27.6 mph 0.00 in Rain Light Rain
12:08 PM 48.2 °F - 46.4 °F 93% 29.95 in 3.0 mi SSE 16.1 mph - 0.00 in Rain Light Rain
12:55 PM 50.0 °F - 46.0 °F 86% 29.94 in 9.0 mi SE 16.1 mph - 0.00 in   Overcast
1:55 PM 51.1 °F - 45.0 °F 80% 29.92 in 10.0 mi South 19.6 mph 25.3 mph N/A   Overcast
2:55 PM 50.0 °F - 45.0 °F 83% 29.94 in 8.0 mi South 15.0 mph 21.9 mph N/A   Overcast
3:55 PM 51.1 °F - 45.0 °F 80% 29.94 in 9.0 mi SSE 12.7 mph 23.0 mph N/A   Overcast
4:55 PM 50.0 °F - 45.0 °F 83% 29.94 in 10.0 mi SSE 13.8 mph - N/A   Overcast
5:55 PM 50.0 °F - 45.0 °F 83% 29.95 in 10.0 mi SSE 12.7 mph - N/A   Overcast
6:55 PM 50.0 °F - 45.0 °F 83% 29.97 in 10.0 mi SE 10.4 mph - N/A   Overcast
7:38 PM 50.0 °F - 44.6 °F 82% 29.98 in 10.0 mi SE 9.2 mph - N/A   Overcast
7:55 PM 48.9 °F - 45.0 °F 86% 29.99 in 10.0 mi SE 9.2 mph - N/A   Overcast
8:39 PM 48.2 °F - 44.6 °F 87% 30.00 in 9.0 mi SE 8.1 mph - N/A   Overcast
8:55 PM 48.9 °F - 45.0 °F 86% 30.01 in 9.0 mi SSE 8.1 mph - N/A   Overcast
9:55 PM 48.0 °F - 45.0 °F 89% 30.02 in 7.0 mi SE 8.1 mph - N/A   Overcast
10:55 PM 46.0 °F 42.5 °F 44.1 °F 93% 30.02 in 7.0 mi SE 6.9 mph - N/A   Mostly Cloudy
11:55 PM 46.0 °F 41.4 °F 44.1 °F 93% 30.01 in 7.0 mi SE 9.2 mph - N/A   Partly Cloudy